Regional Weather Roundup
Issued by NWS Lake Charles, LA

Home | Current Version | Previous Version | Text Only | Print | Product List | Glossary On
Versions: 1 2 3 4 5 6 7 8 9 10 11 12 13 14 15 16 17 18 19 20 21 22 23 24 25 26 27 28 29 30 31 32 33 34 35 36 37 38 39 40 41 42 43 44 45 46 47 48 49 50
000
ASUS44 KLCH 050510
RWRLCH
RWRLCH
REGIONAL WEATHER ROUNDUP
NATIONAL WEATHER SERVICE LAKE CHARLES LA
1200 AM CDT TUE MAY 05 2015

Note: "fair" indicates few or no clouds below 12,000 feet with no
significant weather and/or obstructions to visibility.


ACROSS SOUTHEAST TEXAS

CITY           SKY/WX    TMP DP  RH WIND       PRES   REMARKS
BEAUMONT       MOCLDY    70  66  87 E8        30.07S
BEAUMONT CITY    N/A     66  63  91 E3        30.07F
ORANGE         MOCLDY    72  68  86 SE7       30.10S
JASPER         NOT AVBL
$$

ACROSS CENTRAL LOUISIANA

CITY           SKY/WX    TMP DP  RH WIND       PRES   REMARKS
LEESVILLE      NOT AVBL
FULLERTON        N/A     72  66  81 VRB5      30.09F
ALEXANDRIA INT CLEAR     67  65  93 E3        30.11S
ESLER FIELD    CLEAR     70  64  81 SE3       30.13F
DERIDDER       MOCLDY    71  65  82 SE5       30.13S
OAKDALE        CLEAR     67  65  95 CALM      30.12F
OPELOUSAS        N/A    N/A N/A N/A SE8       30.13F
$$

ACROSS SOUTHWEST AND SOUTH CENTRAL LOUISIANA

CITY           SKY/WX    TMP DP  RH WIND       PRES   REMARKS
SULPHUR        LGT RAIN  73  69  89 E10       30.10F
LAKE CHARLES   HVY RAIN  71  67  87 E12G21    30.10S VSB 3/4
CHENNAULT INT  CLOUDY    71  68  92 E5        30.10F
CAMERON PHI    MOCLDY    75  70  83 SE15G24   30.11S
DEQUINCY         N/A     68  68 100 E3        30.11R
JENNINGS         N/A     72  67  85 E13       30.11S
LAFAYETTE      PTCLDY    69  66  90 VRB3      30.13F
NEW IBERIA       N/A    N/A N/A N/A MISG      30.13F
ABBEVILLE        N/A     70  67  88 SE8       30.13S
PATTERSON      PTCLDY   N/A N/A N/A E7        30.15S
SALT POINT       N/A     72  68  87 SE7       30.12S
$$

SELECTED SITES ACROSS THE REGION

CITY           SKY/WX    TMP DP  RH WIND       PRES   REMARKS
HOUSTON BUSH   PTCLDY    67  63  87 SE5       30.05F
HOUSTON HOBBY  MOCLDY    70  65  84 SE3       30.05F
GALVESTON      MOCLDY    74  66  76 SE12      30.06F
COLLEGE STAT   CLEAR     67  57  70 SE8       30.05F
CONROE         CLEAR     63  59  87 E5        30.06F
HUNTSVILLE     CLEAR     69  60  73 SE5       30.05F
LUFKIN         PTCLDY    66  58  75 SE3       30.07S
SHREVEPORT     CLEAR     71  63  75 SE12      30.09S
MONROE         MOCLDY    70  65  84 CALM      30.14R
NATCHEZ MS     MOCLDY    70  63  78 SE10      30.16F
BATON ROUGE    CLEAR     70  63  78 E9        30.16S
N.O. INTL ARPT CLEAR     70  61  73 SE6       30.17S
SLIDELL        CLEAR     63  62  97 CALM      30.17F
$$

MARINE REPORTS

STATION/POSITION TIME  TEMP    WIND        PRES    VSBY  WAVE
                       AIR SEA DIR/SP/G                  HT/PER
                 (UTC) (F)     (DEG/KT/KT) (MB)    (MI)  (FT/S)
BUOY 30 S HIGH I 0450   75 75  120/ 14/ 16 1017.4F         2/ 3
SEA RIM ST PARK  0500   74     140/ 12/ 16 1018.8S
PORT ARTHUR      0406      74  150/  4/  5 1018.7F
SABINE PASS N    0400   75 75  140/  8/ 10 1018.7S
TEXAS POINT      NOT AVBL
CALCASIEU PASS   0400   76 77  150/ 17/ 21   N/A
LK CHARLES BEACH 0406   72 71              1019.5R
MARSH ISLAND     0400   76     130/ 23/ 28   N/A           0
FRESH WATER LOCK 0406   75 78  110/ 15/ 19 1019.6R
AMERADA PASS     0406   73 69  120/  5/  8 1020.4R
$$


USA.gov is the U.S. government's official web portal to all federal, state and local government web resources and services.